This demonstration page uses our WeatherBlox Daily Observations layout. Learn more.

Left ArrowRight Arrow

38.89511, -77.03637

Hourly Observations for December 29, 2020

Temp ( °F °C ) Dew Point ( °F °C ) Humidity (%) Winds ( mph kmh ) Pressure ( in mb ) Visibility ( mi km ) Precip ( " mm )
12:52 am 00:52 Clear 42 5.6 28 -2.2 58 58 NNW 9 15 30.27 1025 10 16 0.00 0.00
1:52 am 01:52 Clear 40 4.4 27 -2.8 60 60 NNW 13 20 30.28 1025 10 16 0.00 0.00
2:52 am 02:52 Clear 40 4.4 27 -2.8 60 60 NNW 12 19 30.32 1027 10 16 0.00 0.00
3:52 am 03:52 Clear 40 4.4 27 -2.8 60 60 NNW 13 20 30.33 1027 10 16 0.00 0.00
4:52 am 04:52 Mostly Clear 40 4.4 24 -4.4 53 53 WNW 9 15 30.37 1029 10 16 0.00 0.00
5:52 am 05:52 Mostly Cloudy 39 3.9 24 -4.4 55 55 NW 9 15 30.40 1029 10 16 0.00 0.00
6:52 am 06:52 Mostly Cloudy 40 4.4 23 -5 51 51 NW 12 19 30.43 1031 10 16 0.00 0.00
7:52 am 07:52 Mostly Cloudy 40 4.4 22 -5.6 49 49 NW 9 15 30.46 1032 10 16 0.00 0.00
8:52 am 08:52 Mostly Cloudy 40 4.4 20 -6.7 45 45 NW 15 24 30.51 1033 10 16 0.00 0.00
9:52 am 09:52 Partly Cloudy 41 5 18 -7.8 39 39 NNW 20 31 30.54 1034 10 16 0.00 0.00
10:52 am 10:52 Mostly Sunny 40 4.4 11 -11.7 30 30 NW 20 31 30.54 1034 10 16 0.00 0.00
11:52 am 11:52 Mostly Sunny 41 5 13 -10.6 32 32 NNW 21 33 30.52 1034 10 16 0.00 0.00
12:52 pm 12:52 Mostly Sunny 42 5.6 11 -11.7 28 28 NW 17 28 30.52 1034 10 16 0.00 0.00
1:52 pm 13:52 Mostly Sunny 42 5.6 13 -10.6 30 30 NNW 12 19 30.52 1033 10 16 0.00 0.00
2:52 pm 14:52 Mostly Sunny 42 5.6 13 -10.6 30 30 NW 15 24 30.52 1033 10 16 0.00 0.00
3:52 pm 15:52 Mostly Sunny 41 5 14 -10 33 33 NW 16 26 30.53 1034 10 16 0.00 0.00
4:52 pm 16:52 Mostly Sunny 38 3.3 16 -8.9 41 41 NNW 8 13 30.55 1035 10 16 0.00 0.00
5:52 pm 17:52 Clear 36 2.2 16 -8.9 44 44 N 9 15 30.56 1035 10 16 0.00 0.00
6:52 pm 18:52 Clear 35 1.7 16 -8.9 46 46 N 6 9 30.56 1035 10 16 0.00 0.00
7:52 pm 19:52 Clear 34 1.1 17 -8.3 50 50 N 7 11 30.57 1035 10 16 0.00 0.00
8:52 pm 20:52 Clear 34 1.1 16 -8.9 48 48 N 5 7 30.58 1036 10 16 0.00 0.00
9:52 pm 21:52 Clear 34 1.1 17 -8.3 50 50 NNW 5 7 30.58 1036 10 16 0.00 0.00
10:52 pm 22:52 Partly Cloudy 33 0.6 19 -7.2 56 56 ENE 5 7 30.58 1036 10 16 0.00 0.00
11:52 pm 23:52 Partly Cloudy 33 0.6 19 -7.2 56 56 ENE 6 9 30.57 1035 10 16 0.00 0.00

Powered by AerisWeather